Location: *
(43.9905°S, 176.4941°W)
Time: 21:13:43
(UTC+00:00)

Cosmos 1867 - Pass Details

Date: 08 December 2019
Orbit: 777 x 799 km, 65.0° (Epoch: 25 January)

Event Time Altitude Azimuth Distance (km) Brightness Sun altitude
Exits shadow 11:16:27 32° 302° (WNW) 1,324 4.5 -23.1°
Maximum altitude 11:18:52 63° 232° (SW) 881 3.9 -23.2°
Drops below altitude 10° 11:24:16 10° 151° (SSE) 2,363 6.8 -23.2°
Sets 11:26:44 0° 147° (SSE) 3,296 7.6 -23.3°
